FW2365 Weather Reports


Display with metric or nautical units.
time (UTC)temp
F
wind
direction
speed
MPH
gust
MPH
rain 1hr
in
rain 24hr
in
rain mn
in
humidity
%
barometer
mb
20260906105030 71 309 0.0 0.0 0.00 0.00 0.00 61 1029.2
20260906104529 71 304 0.0 0.0 0.00 0.00 0.00 64 1029.2
20260906104027 71 314 0.0 0.0 0.00 0.00 0.00 62 1029.4
20260906103526 71 304 0.0 0.0 0.00 0.00 0.00 64 1029.4
20260906103026 70 304 0.0 0.0 0.00 0.00 0.00 62 1029.4
20260906102528 70 325 0.0 0.0 0.00 0.00 0.00 64 1029.5
20260906102124 70 266 0.0 0.0 0.00 0.00 0.00 63 1029.6
20260906101523 70 324 0.0 0.0 0.00 0.00 0.00 65 1029.6
20260906101021 69 314 0.0 0.0 0.00 0.00 0.00 64 1029.8
20260906100521 69 325 0.0 0.0 0.00 0.00 0.00 67 1029.8
20260906100024 69 325 0.0 0.0 0.00 0.00 0.00 67 1029.9
20260906095520 69 314 0.0 0.0 0.00 0.00 0.00 68 1029.9
20260906095018 69 318 0.0 0.0 0.00 0.00 0.00 68 1029.9
20260906094516 68 304 0.0 0.0 0.00 0.00 0.00 70 1029.9
20260906094014 68 314 0.0 0.0 0.00 0.00 0.00 71 1030.0
20260906093513 68 304 0.0 0.0 0.00 0.00 0.00 70 1030.1
20260906093012 68 309 0.0 0.0 0.00 0.00 0.00 70 1030.1
20260906092512 68 295 0.0 0.0 0.00 0.00 0.00 70 1030.2
20260906092010 68 294 0.0 0.0 0.00 0.00 0.00 72 1030.3
20260906091514 68 304 0.0 8.0 0.00 0.00 0.00 71 1030.3
20260906091007 67 293 4.0 8.0 0.00 0.00 0.00 72 1030.3
20260906090505 67 309 0.0 0.0 0.00 0.00 0.00 69 1030.3
20260906090004 67 304 0.0 5.0 0.00 0.00 0.00 68 1030.2
20260906085503 67 296 1.0 5.0 0.00 0.00 0.00 68 1030.2
20260906085002 67 314 0.0 0.0 0.00 0.00 0.00 69 1030.4
20260906084502 67 314 0.0 0.0 0.00 0.00 0.00 69 1030.4
20260906084101 67 314 0.0 0.0 0.00 0.00 0.00 70 1030.4
20260906083601 67 314 0.0 0.0 0.00 0.00 0.00 71 1030.4
20260906083057 66 314 0.0 0.0 0.00 0.00 0.00 77 1030.5
20260906082555 66 314 0.0 0.0 0.00 0.00 0.00 73 1030.5
20260906082054 66 314 0.0 0.0 0.00 0.00 0.00 73 1030.5
20260906081553 66 319 0.0 0.0 0.00 0.00 0.00 74 1030.5
20260906081051 66 319 0.0 0.0 0.00 0.00 0.00 74 1030.5
20260906080551 66 347 0.0 0.0 0.00 0.00 0.00 76 1030.5
20260906080052 66 347 0.0 0.0 0.00 0.00 0.00 74 1030.5
20260906075548 66 331 0.0 0.0 0.00 0.06 0.00 75 1030.6
20260906075050 65 331 0.0 0.0 0.00 0.06 0.00 76 1030.5
20260906074546 65 329 0.0 0.0 0.00 0.06 0.00 77 1030.6
20260906074045 65 329 0.0 0.0 0.00 0.06 0.00 77 1030.6
20260906073544 65 324 0.0 0.0 0.00 0.06 0.00 76 1030.5
20260906073042 65 314 0.0 0.0 0.00 0.06 0.00 78 1030.6
20260906072541 64 314 0.0 0.0 0.00 0.06 0.00 79 1030.7
20260906072039 64 314 0.0 0.0 0.00 0.06 0.00 79 1030.8
20260906071540 64 314 0.0 0.0 0.00 0.06 0.00 80 1030.7
20260906071037 63 314 0.0 0.0 0.00 0.06 0.00 81 1030.7
20260906070536 63 314 0.0 0.0 0.00 0.06 0.00 81 1030.8
20260906070034 62 314 0.0 0.0 0.00 0.06 0.00 82 1030.8
20260906065534 62 314 0.0 0.0 0.00 0.06 0.00 83 1030.7
20260906065032 61 314 0.0 1.0 0.00 0.06 0.00 86 1030.8
20260906064532 60 314 0.0 3.0 0.00 0.06 0.00 85 1030.9
20260906064035 59 314 2.0 3.0 0.00 0.06 0.00 84 1030.8
20260906063530 59 314 0.0 2.0 0.00 0.06 0.00 85 1030.8
20260906063031 59 314 1.0 3.0 0.00 0.06 0.00 87 1030.7
20260906062529 58 314 2.0 3.0 0.00 0.06 0.00 86 1030.7
20260906062030 58 314 0.0 3.0 0.00 0.06 0.00 88 1030.9
20260906061530 58 183 0.0 0.0 0.00 0.06 0.00 91 1030.9
20260906061027 58 183 0.0 0.0 0.00 0.06 0.00 91 1030.7
20260906060527 57 183 0.0 0.0 0.00 0.06 0.00 91 1030.6
20260906060027 57 183 0.0 0.0 0.00 0.06 0.00 91 1030.6
20260906055524 57 183 0.0 0.0 0.00 0.06 0.00 91 1030.5
20260906055023 57 183 0.0 0.0 0.00 0.06 0.00 91 1030.5
20260906054536 57 183 0.0 0.0 0.00 0.06 0.00 91 1030.6
20260906054020 57 183 0.0 0.0 0.00 0.06 0.00 91 1030.5
20260906053518 57 183 0.0 0.0 0.00 0.06 0.00 91 1030.4
20260906053019 57 183 0.0 0.0 0.00 0.06 0.00 91 1030.4
20260906052517 57 183 0.0 0.0 0.00 0.06 0.00 91 1030.3
20260906052017 57 183 0.0 0.0 0.00 0.06 0.00 90 1030.3
20260906051515 57 183 0.0 0.0 0.00 0.06 0.00 90 1030.3
20260906051015 57 183 0.0 0.0 0.00 0.06 0.00 90 1030.2
20260906050513 57 183 0.0 0.0 0.00 0.06 0.00 89 1030.2
20260906050013 57 183 0.0 0.0 0.00 0.06 0.00 89 1030.2
20260906045512 57 183 0.0 0.0 0.00 0.06 0.00 84 1030.2
20260906045011 57 183 0.0 0.0 0.00 0.06 0.00 84 1030.1
20260906044512 57 183 0.0 0.0 0.00 0.06 0.00 84 1030.1
20260906044009 58 183 0.0 0.0 0.00 0.06 0.00 85 1030.1
20260906043509 58 183 0.0 0.0 0.00 0.06 0.00 85 1030.0
20260906043014 58 183 0.0 0.0 0.00 0.06 0.00 85 1029.9
20260906042507 58 183 0.0 0.0 0.00 0.06 0.00 84 1029.9
20260906042008 58 183 0.0 0.0 0.00 0.06 0.00 84 1029.9
20260906041507 58 183 0.0 0.0 0.00 0.06 0.00 84 1029.9
20260906041007 58 183 0.0 0.0 0.00 0.06 0.00 85 1029.9
20260906040507 58 183 0.0 0.0 0.00 0.06 0.00 86 1029.8
20260906040009 58 183 0.0 0.0 0.00 0.06 0.00 84 1029.8
20260906035505 58 183 0.0 0.0 0.00 0.06 0.00 84 1029.7
20260906035004 59 183 0.0 0.0 0.00 0.06 0.00 87 1029.8
20260906034507 59 183 0.0 0.0 0.00 0.06 0.00 88 1029.8
20260906034004 59 183 0.0 0.0 0.00 0.06 0.00 89 1029.7
20260906033503 59 183 0.0 0.0 0.00 0.06 0.00 89 1029.8
20260906033007 59 183 0.0 0.0 0.00 0.06 0.00 87 1029.7
20260906032502 59 183 0.0 0.0 0.00 0.06 0.00 87 1029.7
20260906032101 59 183 0.0 0.0 0.00 0.06 0.00 87 1029.7
20260906031600 59 183 0.0 0.0 0.00 0.06 0.00 86 1029.6
20260906031100 59 183 0.0 0.0 0.00 0.06 0.00 87 1029.6
20260906030600 59 183 0.0 0.0 0.00 0.06 0.00 85 1029.5
20260906025559 60 183 0.0 0.0 0.00 0.06 0.00 85 1029.5
20260906025058 60 183 0.0 0.0 0.00 0.06 0.00 86 1029.4
20260906024612 60 183 0.0 0.0 0.00 0.06 0.00 86 1029.5
20260906024058 60 183 0.0 0.0 0.00 0.06 0.00 86 1029.5
20260906023559 60 183 0.0 0.0 0.00 0.06 0.00 86 1029.5
20260906023103 60 183 0.0 0.0 0.00 0.06 0.00 87 1029.5
20260906022600 60 183 0.0 0.0 0.00 0.06 0.00 87 1029.6
20260906022059 60 183 0.0 1.0 0.00 0.06 0.00 87 1029.6
20260906021557 60 183 0.0 1.0 0.00 0.06 0.00 87 1029.6
20260906021056 60 183 0.0 0.0 0.00 0.06 0.00 87 1029.6
20260906020556 60 183 0.0 0.0 0.00 0.06 0.00 87 1029.5
20260906020056 60 183 0.0 0.0 0.00 0.06 0.00 87 1029.5
20260906015555 60 183 0.0 0.0 0.00 0.06 0.00 87 1029.5
20260906015055 60 183 0.0 0.0 0.00 0.06 0.00 87 1029.5
20260906014555 60 183 0.0 0.0 0.00 0.06 0.00 87 1029.5
20260906014054 60 183 0.0 3.0 0.00 0.06 0.00 87 1029.5
20260906013555 60 183 1.0 3.0 0.00 0.06 0.00 87 1029.4
20260906013058 60 304 0.0 0.0 0.00 0.06 0.00 87 1029.5
20260906012554 60 304 0.0 0.0 0.00 0.06 0.00 88 1029.5
20260906012054 60 304 0.0 0.0 0.00 0.06 0.00 87 1029.5
20260906011553 60 304 0.0 0.0 0.00 0.06 0.00 87 1029.4
20260906011055 60 304 0.0 0.0 0.00 0.06 0.00 87 1029.5
20260906010552 60 304 0.0 0.0 0.00 0.06 0.00 87 1029.5
20260906010053 60 304 0.0 0.0 0.00 0.06 0.00 87 1029.4
20260906005552 60 304 0.0 0.0 0.00 0.06 0.00 86 1029.5
20260906005052 60 304 0.0 0.0 0.00 0.06 0.00 86 1029.4
20260906004552 60 304 0.0 0.0 0.00 0.06 0.00 87 1029.4
20260906004051 61 304 0.0 0.0 0.00 0.06 0.00 87 1029.4
20260906003552 61 304 0.0 0.0 0.00 0.06 0.00 86 1029.5
20260906003051 61 304 0.0 0.0 0.00 0.06 0.00 85 1029.4
20260906002554 61 304 0.0 0.0 0.00 0.06 0.00 85 1029.4
20260906002050 61 304 0.0 0.0 0.00 0.06 0.00 86 1029.4
20260906001549 61 304 0.0 0.0 0.00 0.06 0.00 86 1029.4
20260906001049 61 304 0.0 0.0 0.00 0.06 0.00 86 1029.4
20260906000549 61 304 0.0 0.0 0.00 0.06 0.00 86 1029.4
20260906000049 61 304 0.0 0.0 0.00 0.06 0.00 86 1029.4
20260905235549 60 304 0.0 0.0 0.00 0.06 0.00 86 1029.4
20260905235049 61 304 0.0 0.0 0.00 0.06 0.00 86 1029.4
20260905234548 61 304 0.0 2.0 0.00 0.06 0.00 86 1029.4
20260905234049 61 304 1.0 3.0 0.00 0.06 0.00 87 1029.4
20260905233548 61 304 1.0 3.0 0.00 0.06 0.00 87 1029.4
20260905233056 61 309 0.0 0.0 0.00 0.06 0.00 87 1029.4
20260905232547 61 309 0.0 0.0 0.00 0.06 0.00 86 1029.4
20260905232047 61 309 0.0 0.0 0.00 0.06 0.00 85 1029.4
20260905231546 61 309 0.0 0.0 0.00 0.06 0.00 85 1029.4
20260905231046 61 309 0.0 0.0 0.00 0.06 0.00 86 1029.3
20260905230545 61 309 0.0 2.0 0.00 0.06 0.00 86 1029.4
20260905230045 61 309 0.0 2.0 0.00 0.06 0.00 86 1029.3
20260905225545 61 309 0.0 0.0 0.00 0.06 0.00 86 1029.3
20260905225043 61 309 0.0 2.0 0.00 0.06 0.00 86 1029.3
20260905224609 61 309 0.0 3.0 0.00 0.06 0.00 85 1029.2
20260905224043 61 173 0.0 3.0 0.00 0.06 0.00 83 1029.2
20260905223543 61 253 0.0 0.0 0.00 0.06 0.00 86 1029.3
20260905223045 61 253 0.0 0.0 0.00 0.06 0.00 86 1029.3
20260905222541 61 253 0.0 0.0 0.00 0.06 0.00 86 1029.3
20260905222044 61 253 0.0 0.0 0.00 0.06 0.00 85 1029.2
20260905221540 61 253 0.0 0.0 0.00 0.06 0.00 85 1029.2
20260905221040 61 253 0.0 0.0 0.00 0.06 0.00 85 1029.3
20260905220540 61 253 0.0 0.0 0.00 0.06 0.00 85 1029.3
20260905220038 61 253 0.0 0.0 0.00 0.06 0.00 85 1029.2
20260905215538 61 253 0.0 0.0 0.00 0.06 0.06 85 1029.2
20260905215038 61 253 0.0 0.0 0.00 0.06 0.06 85 1029.1
20260905214544 61 253 0.0 0.0 0.00 0.06 0.06 85 1029.1
20260905214037 61 253 0.0 0.0 0.00 0.06 0.06 84 1029.1
20260905213537 61 253 0.0 0.0 0.00 0.06 0.06 84 1029.1
20260905213038 61 253 0.0 0.0 0.00 0.06 0.06 84 1029.0
20260905212537 61 253 0.0 0.0 0.00 0.06 0.06 84 1028.9
20260905212034 62 253 0.0 0.0 0.00 0.06 0.06 83 1028.9
20260905211543 62 253 0.0 0.0 0.00 0.06 0.06 83 1028.9
20260905211035 62 253 0.0 0.0 0.00 0.06 0.06 82 1028.8
20260905210534 62 253 0.0 0.0 0.00 0.06 0.06 82 1028.7
20260905210042 62 253 0.0 0.0 0.00 0.06 0.06 82 1028.8
20260905205534 62 253 0.0 0.0 0.00 0.06 0.06 82 1028.8
20260905205037 62 253 0.0 0.0 0.00 0.06 0.06 82 1028.8
20260905204537 62 253 0.0 0.0 0.00 0.06 0.06 82 1028.8
20260905204038 62 253 0.0 3.0 0.00 0.06 0.06 82 1028.8
20260905203534 62 277 0.0 3.0 0.00 0.06 0.06 82 1028.7
20260905203034 62 122 1.0 5.0 0.00 0.06 0.06 82 1028.7
20260905202533 62 276 3.0 5.0 0.00 0.06 0.06 82 1028.9
20260905202032 62 138 1.0 4.0 0.00 0.06 0.06 82 1028.6
20260905201532 62 160 0.0 0.0 0.00 0.06 0.06 82 1028.8
20260905201031 62 160 0.0 2.0 0.00 0.06 0.06 82 1028.7
20260905200531 63 160 0.0 2.0 0.00 0.06 0.06 81 1028.7
20260905200033 63 160 0.0 3.0 0.00 0.06 0.06 81 1028.7
20260905195531 63 160 0.0 3.0 0.00 0.06 0.06 81 1028.5
20260905195033 63 160 0.0 3.0 0.00 0.06 0.06 80 1028.5
20260905194529 63 160 0.0 4.0 0.00 0.06 0.06 80 1028.5
20260905194029 63 127 1.0 5.0 0.00 0.06 0.06 80 1028.5
20260905193527 63 115 2.0 5.0 0.00 0.06 0.06 81 1028.4
20260905193027 62 178 0.0 0.0 0.00 0.06 0.06 81 1028.4
20260905192527 63 177 0.0 0.0 0.00 0.06 0.06 80 1028.2
20260905192025 63 177 0.0 2.0 0.00 0.06 0.06 80 1028.3
20260905191524 63 177 0.0 2.0 0.00 0.06 0.06 80 1028.3
20260905191023 63 177 0.0 2.0 0.00 0.06 0.06 80 1028.3
20260905190524 63 177 0.0 3.0 0.00 0.06 0.06 79 1028.2
20260905190023 63 177 0.0 3.0 0.00 0.06 0.06 79 1028.2
20260905185523 63 177 0.0 2.0 0.00 0.06 0.06 79 1028.0
20260905185021 63 161 0.0 4.0 0.00 0.06 0.06 79 1028.0
20260905184528 63 161 2.0 4.0 0.00 0.06 0.06 78 1027.9
20260905184020 63 173 1.0 3.0 0.00 0.06 0.06 78 1027.8
20260905183520 63 173 1.0 2.0 0.00 0.06 0.06 79 1027.8
20260905183021 63 172 0.0 4.0 0.00 0.06 0.06 78 1027.6
20260905182519 63 172 0.0 4.0 0.00 0.06 0.06 79 1027.5
20260905182017 63 237 0.0 0.0 0.00 0.06 0.06 79 1027.5
20260905181518 63 237 0.0 3.0 0.00 0.06 0.06 78 1027.4
20260905181016 63 237 1.0 5.0 0.00 0.06 0.06 78 1027.4
20260905180520 63 258 1.0 5.0 0.00 0.06 0.06 77 1027.3
20260905180015 64 155 1.0 4.0 0.00 0.06 0.06 77 1027.2
20260905175515 64 156 0.0 3.0 0.00 0.06 0.06 77 1027.1
20260905175015 64 156 0.0 0.0 0.00 0.06 0.06 77 1027.1
20260905174515 64 156 0.0 2.0 0.00 0.06 0.06 77 1027.0
20260905174015 64 156 0.0 3.0 0.00 0.06 0.06 76 1027.1
20260905173515 64 156 0.0 4.0 0.00 0.06 0.06 77 1027.1
20260905173014 64 158 2.0 3.0 0.00 0.06 0.06 77 1027.0
20260905172514 64 158 0.0 3.0 0.00 0.06 0.06 76 1027.2
20260905172015 64 158 0.0 5.0 0.00 0.06 0.06 76 1027.1
20260905171513 64 164 3.0 5.0 0.00 0.06 0.06 76 1027.0
20260905171012 65 163 1.0 5.0 0.00 0.06 0.06 76 1027.0
20260905170512 65 158 2.0 5.0 0.00 0.06 0.06 75 1026.9
20260905170012 65 156 2.0 4.0 0.00 0.06 0.06 75 1026.9
20260905165511 65 157 0.0 4.0 0.00 0.06 0.06 75 1026.9
20260905165011 65 157 3.0 4.0 0.00 0.06 0.06 74 1026.9
20260905164515 65 156 0.0 0.0 0.00 0.06 0.06 74 1026.7
20260905164010 65 156 0.0 3.0 0.00 0.06 0.06 73 1026.8
20260905163510 66 156 1.0 3.0 0.00 0.06 0.06 74 1026.7
20260905163127 66 156 0.0 2.0 0.00 0.06 0.06 73 1026.8
20260905162511 66 156 0.0 2.0 0.00 0.06 0.06 72 1026.7
20260905162010 66 172 0.0 2.0 0.00 0.06 0.06 72 1026.6
20260905161509 67 172 0.0 2.0 0.00 0.06 0.06 72 1026.6
20260905161009 67 172 0.0 0.0 0.00 0.06 0.06 71 1026.4
20260905160509 67 172 0.0 0.0 0.00 0.06 0.06 71 1026.5
20260905160109 67 172 0.0 0.0 0.00 0.06 0.06 74 1026.4
20260905155509 67 172 0.0 0.0 0.00 0.06 0.06 71 1026.4
20260905155008 67 172 0.0 0.0 0.00 0.06 0.06 71 1026.4
20260905154511 67 172 0.0 0.0 0.00 0.06 0.06 72 1026.4
20260905154109 66 172 0.0 0.0 0.00 0.06 0.06 71 1026.4
20260905153508 66 172 0.0 2.0 0.00 0.06 0.06 70 1026.4
20260905153015 66 172 0.0 2.0 0.00 0.06 0.06 70 1026.4
20260905152508 66 172 0.0 0.0 0.00 0.06 0.06 72 1026.5
20260905152009 66 172 0.0 0.0 0.00 0.06 0.06 72 1026.4
20260905151517 66 172 0.0 0.0 0.00 0.06 0.06 71 1026.5
20260905151006 66 172 0.0 1.0 0.00 0.06 0.06 71 1026.4
20260905150507 66 172 0.0 2.0 0.00 0.06 0.06 71 1026.4
20260905150007 66 172 0.0 4.0 0.00 0.06 0.06 71 1026.4
20260905145507 66 174 0.0 3.0 0.00 0.06 0.06 70 1026.5
20260905145006 65 289 0.0 3.0 0.00 0.06 0.06 69 1026.4
20260905144518 65 289 1.0 3.0 0.00 0.06 0.06 72 1026.4
20260905144006 65 291 0.0 2.0 0.00 0.06 0.06 72 1026.4
20260905143607 64 291 0.0 2.0 0.00 0.06 0.06 73 1026.4
20260905143006 64 291 0.0 11.0 0.00 0.06 0.06 74 1026.6
20260905142508 64 291 6.0 11.0 0.00 0.06 0.06 72 1026.6
20260905142005 64 299 0.0 6.0 0.00 0.06 0.06 75 1026.6
20260905141505 64 183 1.0 6.0 0.00 0.06 0.06 76 1026.4
20260905141004 64 161 3.0 10.0 0.00 0.06 0.06 76 1026.5
20260905140506 64 270 4.0 10.0 0.00 0.06 0.06 76 1026.5
20260905140004 64 280 2.0 9.0 0.00 0.06 0.06 78 1026.8
20260905135503 63 299 4.0 9.0 0.00 0.06 0.06 77 1026.6
20260905135002 63 309 0.0 5.0 0.00 0.06 0.06 79 1026.5
20260905134501 63 168 0.0 5.0 0.00 0.06 0.06 81 1026.3
20260905134002 63 151 1.0 8.0 0.00 0.06 0.06 80 1026.2
20260905133602 63 137 3.0 12.0 0.00 0.06 0.06 79 1026.2
20260905133104 63 287 3.0 12.0 0.00 0.06 0.06 81 1025.8
20260905132559 63 314 6.0 12.0 0.00 0.06 0.06 78 1025.8
20260905132058 64 277 7.0 18.0 0.00 0.06 0.06 76 1025.9
20260905131557 64 286 11.0 19.0 0.00 0.06 0.06 73 1025.7
20260905131058 65 297 10.0 21.0 0.00 0.06 0.06 73 1025.6
20260905130556 65 304 9.0 25.0 0.00 0.06 0.06 73 1025.6
20260905130055 66 323 15.0 25.0 0.00 0.06 0.06 71 1025.4
20260905125554 66 278 1.0 14.0 0.00 0.06 0.06 72 1025.2
20260905125056 66 320 0.0 0.0 0.00 0.06 0.06 72 1025.2
20260905124554 67 290 0.0 0.0 0.00 0.06 0.06 72 1025.0
20260905124054 67 276 0.0 19.0 0.00 0.06 0.06 72 1025.0
20260905123554 67 334 1.0 19.0 0.00 0.06 0.06 71 1024.7
20260905123105 68 309 2.0 19.0 0.00 0.06 0.06 70 1024.8
20260905122555 68 314 10.0 19.0 0.00 0.06 0.06 70 1024.6
20260905122057 69 299 8.0 15.0 0.00 0.06 0.06 70 1024.5
20260905121556 69 299 4.0 15.0 0.00 0.06 0.06 67 1024.5
20260905121053 70 309 0.0 14.0 0.00 0.06 0.06 69 1024.3
20260905120553 70 281 7.0 14.0 0.00 0.06 0.06 71 1024.3
20260905120057 70 304 6.0 12.0 0.00 0.06 0.06 71 1024.4
20260905115551 69 266 6.0 13.0 0.00 0.06 0.06 70 1024.5
20260905115053 69 287 1.0 13.0 0.00 0.06 0.06 71 1024.4
20260905114559 69 328 1.0 3.0 0.00 0.06 0.06 75 1024.5
20260905114049 69 131 0.0 0.0 0.00 0.06 0.06 78 1024.5
20260905113548 68 128 0.0 1.0 0.00 0.06 0.06 77 1024.6
20260905113049 67 122 0.0 2.0 0.00 0.06 0.06 76 1024.6
20260905112547 66 112 0.0 2.0 0.00 0.06 0.06 77 1024.6
20260905112047 66 117 0.0 3.0 0.00 0.06 0.06 80 1024.7
20260905111545 66 139 0.0 3.0 0.00 0.06 0.06 78 1024.7
20260905111046 65 309 0.0 3.0 0.00 0.06 0.06 80 1024.7
20260905110545 65 309 0.0 4.0 0.00 0.06 0.06 80 1024.9
20260905110046 65 309 0.0 4.0 0.00 0.06 0.06 81 1024.9
20260905105547 65 304 0.0 4.0 0.00 0.06 0.06 80 1024.9